Regional Weather Roundup
Issued by NWS

Home | Current Version | Previous Version | Graphics & Text | Print | Product List | Glossary On
Versions: 1 2 3 4 5 6 7 8 9 10 11 12 13 14 15 16 17 18 19 20 21 22 23 24 25 26 27 28 29 30 31 32 33 34 35 36 37 38 39 40 41 42 43 44 45 46 47 48 49 50
000
ASUS43 KMKX 050200
RWRWI

WISCONSIN REGIONAL WEATHER ROUNDUP
NATIONAL WEATHER SERVICE MILWAUKEE/SULLIVAN WI
900 PM CDT TUE AUG 04 2015

NOTE: "FAIR" INDICATES FEW OR NO CLOUDS BELOW 12,000 FEET WITH NO
SIGNIFICANT WEATHER AND/OR OBSTRUCTIONS TO VISIBILITY.

WIZ001-002-006>008-014>016-023>028-050300-
NORTHWEST WISCONSIN

CITY           SKY/WX    TMP DP  RH WIND       PRES   REMARKS
SUPERIOR ARPT  MOCLDY    58  53  83 NE6       30.01R
ASHLAND        CLEAR     54  52  93 CALM      30.04R
HAYWARD        PTCLDY    62  55  77 NE6       30.02R
SIREN          CLEAR     70  54  57 CALM      30.00R
CUMBERLAND     PTCLDY    64  54  68 N6        30.00R
RICE LAKE      CLEAR     68  56  66 CALM      30.01R
CHETEK         PTCLDY    68  57  67 CALM      29.99S
LADYSMITH      CLEAR     63  57  80 N6        30.03R
EAU CLAIRE     NOT AVBL
MENOMONIE      CLEAR     67  58  71 CALM      30.00R
NEW RICHMOND   CLEAR     67  57  70 CALM      30.00R
OSCEOLA        CLEAR     69  58  66 CALM      30.01S
$$

WIZ003>005-009-010-017-018-050300-
NORTH CENTRAL WISCONSIN

CITY           SKY/WX    TMP DP  RH WIND       PRES   REMARKS
MANITOWISH WTR CLEAR     59  50  71 N3        30.03R
ARBOR VITAE    MOCLDY    62  53  72 N3        30.03R
WOODRUFF       MOCLDY    62  53  72 N3        30.03R
RHINELANDER    CLEAR     62  51  67 CALM      30.03R
EAGLE RIVER    PTCLDY    59  48  67 N3        30.02R
LAND O LAKES   CLEAR     59  49  69 N5        30.04R
PHILLIPS       CLEAR     61  54  77 NE6       30.02R
TOMAHAWK       MOCLDY    60  53  78 CALM      30.03R
MEDFORD        CLEAR     59  56  89 CALM      30.01R
MERRILL        NOT AVBL
$$

WIZ029-030-035-036-043>047-050300-
CENTRAL WISCONSIN

CITY           SKY/WX    TMP DP  RH WIND       PRES   REMARKS
WAUSAU         PTCLDY    66  52  60 CALM      29.99R
MOSINEE        CLEAR     66  54  63 CALM      30.02R
MARSHFIELD     CLEAR     66  54  65 CALM      30.01R
STEVENS POINT  PTCLDY    66  54  63 CALM      30.01R
WAUPACA        CLEAR     66  55  68 CALM      30.00R
WAUTOMA        NOT AVBL
WISC RAPIDS    PTCLDY    64  53  67 CALM      30.01R
CAMP DOUGLAS   NOT AVBL
$$

WIZ011>013-019>022-031-037>040-048>050-050300-
NORTHEAST WISCONSIN

CITY           SKY/WX    TMP DP  RH WIND       PRES   REMARKS
ANTIGO         PTCLDY    60  54  79 N5        30.02R
SHAWANO        MOCLDY    68  55  62 CALM      29.99R
OCONTO         MOCLDY    64  58  81 CALM      29.99R
STURGEON BAY   CLEAR     63  55  77 NE5       30.02R
GREEN BAY      CLEAR     65  56  72 N6        29.99R
MANITOWOC      NOT AVBL
APPLETON       NOT AVBL
CLINTONVILLE   PTCLDY    66  52  59 CALM      29.99R
OSHKOSH        CLEAR     69  53  56 CALM      29.99R
$$

WIZ032>034-041-042-053>061-050300-
SOUTHWEST WISCONSIN

CITY           SKY/WX    TMP DP  RH WIND       PRES   REMARKS
LA CROSSE      CLEAR     71  55  56 SW5       30.00R
SPARTA         CLEAR     65  54  67 CALM      30.01R
VIROQUA        CLEAR     65  57  75 CALM      30.03R
BOSCOBEL       PTCLDY    63  59  87 CALM      30.02R
PRAIRIE DU CHI MOCLDY    68  58  69 CALM      30.02R
PLATTEVILLE    MOCLDY    69  56  63 W3        30.03R
$$

WIZ056-057-062-063-064-067-068-050300-
SOUTH CENTRAL WISCONSIN

CITY           SKY/WX    TMP DP  RH WIND       PRES   REMARKS
REEDSBURG      PTCLDY    69  55  60 CALM      30.00R
BARABOO/DELLS  MOCLDY    71  51  50 CALM      30.00R
LONE ROCK      NOT AVBL
MINERAL POINT  PTCLDY    70  52  52 CALM      30.04R
MADISON        MOCLDY    66  55  67 CALM      30.01R
MIDDLETON      PTCLDY    66  57  71 CALM      30.01R
WATERTOWN      PTCLDY    65  58  77 CALM      29.99R
MONROE         PTCLDY    70  55  60 W8        30.02R
JANESVILLE     PTCLDY    66  57  72 SW3       30.01R
$$

WIZ051-052-058>065-066-070>072-050300-
SOUTHEAST WISCONSIN

CITY           SKY/WX    TMP DP  RH WIND       PRES   REMARKS
MILWAUKEE      PTCLDY    69  56  62 S7        30.00R
WAUKESHA       PTCLDY    66  52  59 CALM      30.01R
MILWAUKEE/TIMM CLEAR     72  48  43 CALM      30.00R
RACINE         CLEAR     67  57  70 S5        30.02R
BURLINGTON     PTCLDY    63  55  75 CALM      30.00R
KENOSHA        PTCLDY    67  56  67 S5        30.01R
FOND DU LAC    CLEAR     66  56  70 W5        30.00R
SHEBOYGAN      PTCLDY    64  56  75 CALM      29.99R
WEST BEND      CLEAR     68  54  60 CALM      30.00R
JUNEAU         MOCLDY    66  55  69 CALM      30.02R
$$

LSZ147-162-050300-
LAKE SUPERIOR

STATION/POSITION TIME  TEMP    WIND        PRES    WAVE
                       AIR SEA DIR/SP/G            HT/PER
                 (UTC) (F)     (DEG/KT/KT) (MB)    (FT/S)
W MID LAKE BUOY  0050   59 58  210/  4/  6 1016.3R   0
DEVILS ISLAND    0100   62      90/  7/  7 1016.6R
PORT WING        0100   70      70/  3/  6 1016.3R
SAXON HARBOR     0100   65      50/  9/ 10 1016.3R
$$

LMZ867-665-643>646-050300-
LAKE MICHIGAN

STATION/POSITION TIME  TEMP    WIND        PRES    WAVE
                       AIR SEA DIR/SP/G            HT/PER
                 (UTC) (F)     (DEG/KT/KT) (MB)    (FT/S)
CHAMBERS ISLAND  0100   66      30/  9/ 12 1015.2R
N MID LAKE BUOY  0050   63 69  340/  8/ 10 1014.9R   0
NORTHPORT PIER   0100   65      20/  8/ 10 1014.9R
SISTER BAY       0103   66      30/  5/  6   N/A
ALGOMA LAKESHORE 0112           70/ 10/ 13   N/A
KEWAUNEE LAKESHO 0100   62      30/  3/  4 1014.0R
SHEBOYGAN LAKESH 0100   74     310/  7/  8 1014.4R
PORT WASHINGTON  0140   74     300/  2/ 22 1015.6R
ATWATER BUOY     0100   69 67  180/  8/  8 1016.1R
MILWAUKEE LAKESH 0100   67     160/  9/ 10   N/A
KENOSHA   LAKESH 0100   69     180/  4/  6 1014.6R
$$

TC  - TEMPERATURE IN CELSIUS
VSB - VISIBILITY IN STATUTE MILES
WCI - WIND CHILL INDEX
HX  - HEAT INDEX



USA.gov is the U.S. government's official web portal to all federal, state and local government web resources and services.